Time,TemperatureF,DewpointF,PressureIn,WindDirection,WindDirectionDegrees,WindSpeedMPH,WindSpeedGustMPH,Humidity,HourlyPrecipIn,Conditions,Clouds,dailyrainin,SoftwareType,DateUTC
2013-05-08 08:36:00,51.0,49.3,30.13,NE,48,0.0,0.0,94,0.00,,---,0.00,VWS V13.00,2013-05-08 15:36:00,
2013-05-08 08:45:00,51.0,49.3,30.13,NE,48,0.0,0.0,94,0.00,,---,0.00,VWS V13.00,2013-05-08 15:45:00,
2013-05-08 08:50:00,51.0,49.6,30.13,NE,48,0.0,0.0,95,0.00,,---,0.00,VWS V13.00,2013-05-08 15:50:00,
2013-05-08 08:55:00,51.0,49.3,30.13,NE,48,0.0,0.0,94,0.00,,---,0.00,VWS V13.00,2013-05-08 15:55:00,
2013-05-08 09:00:00,51.0,49.3,30.13,NE,48,0.0,0.0,94,0.00,,---,0.00,VWS V13.00,2013-05-08 16:00:00,
2013-05-08 09:05:00,51.0,49.3,30.13,NE,48,0.0,0.0,94,0.00,,---,0.00,VWS V13.00,2013-05-08 16:05:00,
2013-05-08 09:10:00,51.0,49.3,30.13,NE,48,0.0,0.0,94,0.00,,---,0.00,VWS V13.00,2013-05-08 16:10:00,
2013-05-08 09:15:00,51.1,49.4,30.13,NE,48,0.0,0.0,94,0.00,,---,0.00,VWS V13.00,2013-05-08 16:15:00,
2013-05-08 09:20:00,51.1,49.4,30.14,NE,48,0.0,0.0,94,0.00,,---,0.00,VWS V13.00,2013-05-08 16:20:00,
2013-05-08 09:25:00,51.3,49.6,30.14,NE,48,0.0,0.0,94,0.00,,---,0.00,VWS V13.00,2013-05-08 16:25:00,
2013-05-08 09:30:00,51.3,49.6,30.14,NE,48,0.0,0.0,94,0.00,,---,0.00,VWS V13.00,2013-05-08 16:30:00,
2013-05-08 09:35:00,51.4,49.7,30.14,NE,48,0.0,0.0,94,0.00,,---,0.00,VWS V13.00,2013-05-08 16:35:00,
2013-05-08 09:40:00,51.3,49.6,30.14,NE,48,0.0,0.0,94,0.00,,---,0.00,VWS V13.00,2013-05-08 16:40:00,
2013-05-08 09:45:00,51.1,49.4,30.14,NE,48,0.0,0.0,94,0.00,,---,0.00,VWS V13.00,2013-05-08 16:45:00,
2013-05-08 09:50:00,51.4,49.7,30.14,NE,48,0.0,0.0,94,0.00,,---,0.00,VWS V13.00,2013-05-08 16:50:00,
2013-05-08 09:55:00,51.4,49.7,30.14,NE,48,0.0,0.0,94,0.00,,---,0.00,VWS V13.00,2013-05-08 16:55:00,
2013-05-08 10:00:00,51.4,49.7,30.14,NE,48,0.0,0.0,94,0.00,,---,0.00,VWS V13.00,2013-05-08 17:00:00,
2013-05-08 10:05:00,51.4,49.5,30.14,NE,48,0.0,0.0,93,0.00,,---,0.00,VWS V13.00,2013-05-08 17:05:00,
2013-05-08 10:10:00,51.6,49.7,30.14,NE,48,0.0,0.0,93,0.00,,---,0.00,VWS V13.00,2013-05-08 17:10:00,
2013-05-08 10:15:00,51.6,49.7,30.14,NE,48,0.0,0.0,93,0.00,,---,0.00,VWS V13.00,2013-05-08 17:15:00,
2013-05-08 10:20:00,51.6,49.4,30.15,NE,48,0.0,0.0,92,0.00,,---,0.00,VWS V13.00,2013-05-08 17:20:00,
2013-05-08 10:25:00,51.7,49.5,30.15,NE,48,0.0,0.0,92,0.00,,---,0.00,VWS V13.00,2013-05-08 17:25:00,
2013-05-08 10:30:00,51.9,49.7,30.15,NE,48,0.0,0.0,92,0.00,,---,0.00,VWS V13.00,2013-05-08 17:30:00,
2013-05-08 10:35:00,52.2,50.0,30.15,NE,48,0.0,0.0,92,0.00,,---,0.00,VWS V13.00,2013-05-08 17:35:00,
2013-05-08 10:40:00,52.3,50.0,30.15,NE,48,0.0,0.0,92,0.00,,---,0.00,VWS V13.00,2013-05-08 17:40:00,
2013-05-08 10:45:00,52.5,50.2,30.15,NE,48,0.0,0.0,92,0.00,,---,0.00,VWS V13.00,2013-05-08 17:45:00,
2013-05-08 10:50:00,52.6,50.0,30.15,NE,48,0.0,0.0,91,0.00,,---,0.00,VWS V13.00,2013-05-08 17:50:00,
2013-05-08 10:55:00,52.9,50.3,30.15,NE,48,0.0,0.0,91,0.00,,---,0.00,VWS V13.00,2013-05-08 17:55:00,
2013-05-08 11:00:00,53.2,50.3,30.15,NE,48,0.0,0.0,90,0.00,,---,0.00,VWS V13.00,2013-05-08 18:00:00,
2013-05-08 11:05:00,53.3,50.2,30.15,NE,48,0.0,0.0,89,0.00,,---,0.00,VWS V13.00,2013-05-08 18:05:00,
2013-05-08 11:10:00,53.5,50.3,30.15,NE,48,0.0,0.0,89,0.00,,---,0.00,VWS V13.00,2013-05-08 18:10:00,
2013-05-08 11:15:00,53.8,50.6,30.15,NE,48,0.0,0.0,89,0.00,,---,0.00,VWS V13.00,2013-05-08 18:15:00,
2013-05-08 11:20:00,53.9,50.4,30.16,NE,48,1.0,1.0,88,0.00,,---,0.00,VWS V13.00,2013-05-08 18:20:00,
2013-05-08 11:25:00,54.1,50.6,30.16,NE,48,0.0,1.0,88,0.00,,---,0.00,VWS V13.00,2013-05-08 18:25:00,
2013-05-08 11:30:00,54.4,50.6,30.16,NE,48,0.0,1.0,87,0.00,,---,0.00,VWS V13.00,2013-05-08 18:30:00,
2013-05-08 11:35:00,54.5,50.7,30.16,NE,48,0.0,1.0,87,0.00,,---,0.00,VWS V13.00,2013-05-08 18:35:00,
2013-05-08 11:40:00,54.7,50.9,30.16,NE,48,0.0,0.0,87,0.00,,---,0.00,VWS V13.00,2013-05-08 18:40:00,
2013-05-08 11:45:00,54.7,50.3,30.16,NE,48,0.0,0.0,85,0.00,,---,0.00,VWS V13.00,2013-05-08 18:45:00,
2013-05-08 11:50:00,54.8,50.4,30.16,NE,48,0.0,0.0,85,0.00,,---,0.00,VWS V13.00,2013-05-08 18:50:00,
2013-05-08 11:55:00,54.8,50.4,30.16,NE,48,0.0,0.0,85,0.00,,---,0.00,VWS V13.00,2013-05-08 18:55:00,
2013-05-08 12:00:00,55.0,50.6,30.16,NE,48,0.0,2.0,85,0.00,,---,0.00,VWS V13.00,2013-05-08 19:00:00,
2013-05-08 12:05:00,55.1,50.4,30.16,NE,48,0.0,2.0,84,0.00,,---,0.00,VWS V13.00,2013-05-08 19:05:00,
2013-05-08 12:10:00,55.1,50.4,30.16,NE,48,0.0,0.0,84,0.00,,---,0.00,VWS V13.00,2013-05-08 19:10:00,
2013-05-08 12:15:00,55.3,50.6,30.16,NE,48,0.0,0.0,84,0.00,,---,0.00,VWS V13.00,2013-05-08 19:15:00,
2013-05-08 12:20:00,55.4,50.3,30.16,NE,48,0.0,1.0,83,0.00,,---,0.00,VWS V13.00,2013-05-08 19:20:00,
2013-05-08 12:25:00,55.6,50.5,30.16,NE,48,0.0,1.0,83,0.00,,---,0.00,VWS V13.00,2013-05-08 19:25:00,
2013-05-08 12:30:00,55.6,50.2,30.16,NE,48,0.0,1.0,82,0.00,,---,0.00,VWS V13.00,2013-05-08 19:30:00,
2013-05-08 12:35:00,55.7,50.6,30.16,NE,48,0.0,1.0,83,0.00,,---,0.00,VWS V13.00,2013-05-08 19:35:00,
2013-05-08 12:40:00,56.0,50.9,30.16,NE,48,0.0,0.0,83,0.00,,---,0.00,VWS V13.00,2013-05-08 19:40:00,
2013-05-08 12:45:00,55.9,50.2,30.16,ENE,62,0.0,0.0,81,0.00,,---,0.00,VWS V13.00,2013-05-08 19:45:00,
2013-05-08 12:50:00,56.0,50.3,30.16,ENE,58,0.0,2.0,81,0.00,,---,0.00,VWS V13.00,2013-05-08 19:50:00,
2013-05-08 12:55:00,56.0,50.3,30.15,ENE,58,0.0,2.0,81,0.00,,---,0.00,VWS V13.00,2013-05-08 19:55:00,
2013-05-08 13:00:00,56.5,51.4,30.15,ENE,58,0.0,2.0,83,0.00,,---,0.00,VWS V13.00,2013-05-08 20:00:00,
2013-05-08 13:05:00,56.6,50.8,30.15,ENE,58,0.0,2.0,81,0.00,,---,0.00,VWS V13.00,2013-05-08 20:05:00,
2013-05-08 13:10:00,56.7,50.6,30.15,ENE,58,0.0,0.0,80,0.00,,---,0.00,VWS V13.00,2013-05-08 20:10:00,
2013-05-08 13:15:00,57.0,50.9,30.15,ENE,58,0.0,0.0,80,0.00,,---,0.00,VWS V13.00,2013-05-08 20:15:00,
2013-05-08 13:20:00,57.2,51.4,30.15,ENE,58,0.0,0.0,81,0.00,,---,0.00,VWS V13.00,2013-05-08 20:20:00,
2013-05-08 13:25:00,57.2,50.8,30.16,NNE,27,0.0,0.0,79,0.00,,---,0.00,VWS V13.00,2013-05-08 20:25:00,
2013-05-08 13:30:00,57.2,50.8,30.16,NNE,27,0.0,0.0,79,0.00,,---,0.00,VWS V13.00,2013-05-08 20:30:00,
2013-05-08 13:35:00,57.2,50.8,30.16,NNE,27,0.0,0.0,79,0.00,,---,0.00,VWS V13.00,2013-05-08 20:35:00,
2013-05-08 13:40:00,57.5,51.4,30.16,NNE,27,0.0,0.0,80,0.00,,---,0.00,VWS V13.00,2013-05-08 20:40:00,
2013-05-08 13:45:00,57.6,51.5,30.16,NNE,27,0.0,0.0,80,0.00,,---,0.00,VWS V13.00,2013-05-08 20:45:00,
2013-05-08 13:50:00,57.6,51.5,30.16,North,0,0.0,0.0,80,0.00,,---,0.00,VWS V13.00,2013-05-08 20:50:00,
2013-05-08 13:55:00,57.6,50.1,30.16,SE,140,0.0,0.0,76,0.00,,---,0.00,VWS V13.00,2013-05-08 20:55:00,
2013-05-08 14:00:00,57.6,50.1,30.16,SE,140,0.0,0.0,76,0.00,,---,0.00,VWS V13.00,2013-05-08 21:00:00,
2013-05-08 14:05:00,57.6,50.5,30.16,WSW,257,0.0,3.0,77,0.00,,---,0.00,VWS V13.00,2013-05-08 21:05:00,
2013-05-08 14:10:00,57.6,50.8,30.16,WSW,253,0.0,1.0,78,0.00,,---,0.00,VWS V13.00,2013-05-08 21:10:00,
2013-05-08 14:15:00,57.8,51.0,30.16,WSW,253,0.0,1.0,78,0.00,,---,0.00,VWS V13.00,2013-05-08 21:15:00,
2013-05-08 14:20:00,57.8,51.0,30.16,WSW,258,0.0,1.0,78,0.00,,---,0.00,VWS V13.00,2013-05-08 21:20:00,
2013-05-08 14:25:00,58.0,51.2,30.16,West,263,0.0,1.0,78,0.00,,---,0.00,VWS V13.00,2013-05-08 21:25:00,
2013-05-08 14:30:00,58.3,51.5,30.16,South,181,0.0,1.0,78,0.00,,---,0.00,VWS V13.00,2013-05-08 21:30:00,
2013-05-08 14:35:00,58.4,50.9,30.16,North,357,0.0,2.0,76,0.00,,---,0.00,VWS V13.00,2013-05-08 21:35:00,
2013-05-08 14:40:00,58.6,51.1,30.16,East,88,0.0,0.0,76,0.00,,---,0.00,VWS V13.00,2013-05-08 21:40:00,
2013-05-08 14:45:00,59.0,51.8,30.16,WNW,299,0.0,1.0,77,0.00,,---,0.00,VWS V13.00,2013-05-08 21:45:00,
2013-05-08 14:50:00,59.0,51.5,30.16,NNW,329,0.0,1.0,76,0.00,,---,0.00,VWS V13.00,2013-05-08 21:50:00,
2013-05-08 14:55:00,59.3,51.4,30.15,NE,34,0.0,1.0,75,0.00,,---,0.00,VWS V13.00,2013-05-08 21:55:00,
2013-05-08 15:00:00,59.6,51.3,30.15,South,185,0.0,1.0,74,0.00,,---,0.00,VWS V13.00,2013-05-08 22:00:00,
2013-05-08 15:05:00,59.6,51.3,30.15,SE,130,0.0,3.0,74,0.00,,---,0.00,VWS V13.00,2013-05-08 22:05:00,
2013-05-08 15:10:00,60.1,52.5,30.15,SE,133,0.0,0.0,76,0.00,,---,0.00,VWS V13.00,2013-05-08 22:10:00,
2013-05-08 15:15:00,60.2,51.5,30.15,WNW,301,0.0,0.0,73,0.00,,---,0.00,VWS V13.00,2013-05-08 22:15:00,
2013-05-08 15:20:00,60.5,51.8,30.15,West,268,0.0,1.0,73,0.00,,---,0.00,VWS V13.00,2013-05-08 22:20:00,
2013-05-08 15:25:00,60.7,52.0,30.15,West,268,0.0,1.0,73,0.00,,---,0.00,VWS V13.00,2013-05-08 22:25:00,
2013-05-08 15:30:00,60.7,51.6,30.15,SE,143,0.0,1.0,72,0.00,,---,0.00,VWS V13.00,2013-05-08 22:30:00,
2013-05-08 15:35:00,61.2,52.1,30.15,North,349,0.0,2.0,72,0.00,,---,0.00,VWS V13.00,2013-05-08 22:35:00,
2013-05-08 15:40:00,62.0,52.5,30.14,South,182,0.0,0.0,71,0.00,,---,0.00,VWS V13.00,2013-05-08 22:40:00,
2013-05-08 15:45:00,62.3,52.4,30.14,SW,236,0.0,2.0,70,0.00,,---,0.00,VWS V13.00,2013-05-08 22:45:00,
2013-05-08 15:50:00,62.6,53.1,30.14,SSE,164,0.0,2.0,71,0.00,,---,0.00,VWS V13.00,2013-05-08 22:50:00,
2013-05-08 15:55:00,63.1,52.8,30.13,SSE,164,0.0,2.0,69,0.00,,---,0.00,VWS V13.00,2013-05-08 22:55:00,
2013-05-08 16:00:00,63.2,52.1,30.13,SSE,164,0.0,2.0,67,0.00,,---,0.00,VWS V13.00,2013-05-08 23:00:00,
2013-05-08 16:05:00,63.7,52.5,30.13,WNW,284,0.0,3.0,67,0.00,,---,0.00,VWS V13.00,2013-05-08 23:05:00,
2013-05-08 16:10:00,64.0,53.6,30.12,NW,323,0.0,0.0,69,0.00,,---,0.00,VWS V13.00,2013-05-08 23:10:00,
2013-05-08 16:15:00,64.5,54.5,30.12,NNW,346,0.0,0.0,70,0.00,,---,0.00,VWS V13.00,2013-05-08 23:15:00,
2013-05-08 16:20:00,65.0,53.4,30.12,ENE,58,0.0,1.0,66,0.00,,---,0.00,VWS V13.00,2013-05-08 23:20:00,
2013-05-08 16:25:00,65.3,53.7,30.12,North,353,0.0,2.0,66,0.00,,---,0.00,VWS V13.00,2013-05-08 23:25:00,
2013-05-08 16:30:00,65.8,54.1,30.12,NNW,342,0.0,2.0,66,0.00,,---,0.00,VWS V13.00,2013-05-08 23:30:00,
2013-05-08 16:35:00,66.0,53.9,30.12,NNW,342,0.0,2.0,65,0.00,,---,0.00,VWS V13.00,2013-05-08 23:35:00,
2013-05-08 16:40:00,66.4,53.9,30.12,NNW,342,0.0,0.0,64,0.00,,---,0.00,VWS V13.00,2013-05-08 23:40:00,
2013-05-08 16:45:00,66.8,54.2,30.12,NW,313,0.0,1.0,64,0.00,,---,0.00,VWS V13.00,2013-05-08 23:45:00,
2013-05-08 16:50:00,67.3,56.0,30.12,ENE,69,0.0,4.0,67,0.00,,---,0.00,VWS V13.00,2013-05-08 23:50:00,
2013-05-08 16:55:00,67.3,54.3,30.12,North,3,0.0,4.0,63,0.00,,---,0.00,VWS V13.00,2013-05-08 23:55:00,
2013-05-08 17:00:00,67.6,53.2,30.12,West,277,1.0,4.0,60,0.00,,---,0.00,VWS V13.00,2013-05-09 00:00:00,
2013-05-08 17:05:00,67.6,52.8,30.12,SW,223,0.0,4.0,59,0.00,,---,0.00,VWS V13.00,2013-05-09 00:05:00,
2013-05-08 17:10:00,67.8,53.9,30.11,SW,227,0.0,1.0,61,0.00,,---,0.00,VWS V13.00,2013-05-09 00:10:00,
2013-05-08 17:15:00,67.8,54.3,30.11,ENE,68,0.0,1.0,62,0.00,,---,0.00,VWS V13.00,2013-05-09 00:15:00,
2013-05-08 17:20:00,67.6,53.7,30.11,ENE,68,0.0,1.0,61,0.00,,---,0.00,VWS V13.00,2013-05-09 00:20:00,
2013-05-08 17:25:00,67.6,53.7,30.11,ENE,58,0.0,1.0,61,0.00,,---,0.00,VWS V13.00,2013-05-09 00:25:00,
2013-05-08 17:30:00,67.6,53.7,30.11,SSW,208,0.0,1.0,61,0.00,,---,0.00,VWS V13.00,2013-05-09 00:30:00,
2013-05-08 17:35:00,67.6,54.1,30.11,SSW,206,0.0,1.0,62,0.00,,---,0.00,VWS V13.00,2013-05-09 00:35:00,
2013-05-08 17:40:00,67.4,53.0,30.11,SE,136,0.0,1.0,60,0.00,,---,0.00,VWS V13.00,2013-05-09 00:40:00,
2013-05-08 17:45:00,67.4,53.5,30.11,SE,136,0.0,1.0,61,0.00,,---,0.00,VWS V13.00,2013-05-09 00:45:00,
2013-05-08 17:50:00,67.4,53.5,30.11,SE,136,0.0,1.0,61,0.00,,---,0.00,VWS V13.00,2013-05-09 00:50:00,
2013-05-08 17:55:00,67.4,53.5,30.11,NNW,347,0.0,3.0,61,0.00,,---,0.00,VWS V13.00,2013-05-09 00:55:00,
2013-05-08 18:00:00,67.3,53.8,30.11,NNW,347,0.0,3.0,62,0.00,,---,0.00,VWS V13.00,2013-05-09 01:00:00,
2013-05-08 18:05:00,67.1,53.7,30.11,NNW,347,0.0,3.0,62,0.00,,---,0.00,VWS V13.00,2013-05-09 01:05:00,
2013-05-08 18:10:00,66.9,53.5,30.11,NNW,347,0.0,0.0,62,0.00,,---,0.00,VWS V13.00,2013-05-09 01:10:00,
2013-05-08 18:15:00,66.8,53.4,30.11,NNW,347,0.0,0.0,62,0.00,,---,0.00,VWS V13.00,2013-05-09 01:15:00,
2013-05-08 18:20:00,66.6,54.1,30.11,NNW,347,0.0,0.0,64,0.00,,---,0.00,VWS V13.00,2013-05-09 01:20:00,
2013-05-08 18:25:00,66.4,53.9,30.10,NNW,347,0.0,0.0,64,0.00,,---,0.00,VWS V13.00,2013-05-09 01:25:00,
2013-05-08 18:30:00,66.1,53.6,30.10,NNW,347,0.0,0.0,64,0.00,,---,0.00,VWS V13.00,2013-05-09 01:30:00,
2013-05-08 18:35:00,66.0,53.5,30.10,NNW,347,0.0,0.0,64,0.00,,---,0.00,VWS V13.00,2013-05-09 01:35:00,
2013-05-08 18:40:00,65.8,53.7,30.10,NNW,347,0.0,0.0,65,0.00,,---,0.00,VWS V13.00,2013-05-09 01:40:00,
2013-05-08 18:49:00,65.5,54.3,30.10,NNW,347,0.0,0.0,67,0.00,,---,0.00,VWS V13.00,2013-05-09 01:49:00,
2013-05-08 18:54:00,65.2,54.0,30.10,North,349,0.0,1.0,67,0.00,,---,0.00,VWS V13.00,2013-05-09 01:54:00,
2013-05-08 18:59:00,65.0,53.8,30.10,North,349,0.0,1.0,67,0.00,,---,0.00,VWS V13.00,2013-05-09 01:59:00,
2013-05-08 19:04:00,64.8,54.0,30.10,North,349,0.0,1.0,68,0.00,,---,0.00,VWS V13.00,2013-05-09 02:04:00,
2013-05-08 19:09:00,64.8,54.4,30.10,North,349,0.0,0.0,69,0.00,,---,0.00,VWS V13.00,2013-05-09 02:09:00,
2013-05-08 19:14:00,64.7,54.3,30.10,North,349,0.0,0.0,69,0.00,,---,0.00,VWS V13.00,2013-05-09 02:14:00,
2013-05-08 19:19:00,64.7,54.7,30.10,North,349,0.0,0.0,70,0.00,,---,0.00,VWS V13.00,2013-05-09 02:19:00,
2013-05-08 19:24:00,64.5,54.5,30.10,North,349,0.0,0.0,70,0.00,,---,0.00,VWS V13.00,2013-05-09 02:24:00,
2013-05-08 19:29:00,64.5,54.5,30.10,North,349,0.0,0.0,70,0.00,,---,0.00,VWS V13.00,2013-05-09 02:29:00,
2013-05-08 19:34:00,64.5,54.5,30.10,North,349,0.0,0.0,70,0.00,,---,0.00,VWS V13.00,2013-05-09 02:34:00,
2013-05-08 19:39:00,64.3,54.3,30.10,North,349,0.0,0.0,70,0.00,,---,0.00,VWS V13.00,2013-05-09 02:39:00,
2013-05-08 19:44:00,64.2,54.6,30.10,North,349,0.0,0.0,71,0.00,,---,0.00,VWS V13.00,2013-05-09 02:44:00,
2013-05-08 19:49:00,64.0,54.4,30.10,North,349,0.0,0.0,71,0.00,,---,0.00,VWS V13.00,2013-05-09 02:49:00,
2013-05-08 19:54:00,63.7,54.5,30.10,North,349,0.0,0.0,72,0.00,,---,0.00,VWS V13.00,2013-05-09 02:54:00,
2013-05-08 19:59:00,63.4,54.2,30.10,North,349,0.0,0.0,72,0.00,,---,0.00,VWS V13.00,2013-05-09 02:59:00,
2013-05-08 20:04:00,63.1,54.3,30.10,North,349,0.0,0.0,73,0.00,,---,0.00,VWS V13.00,2013-05-09 03:04:00,
2013-05-08 20:09:00,62.7,54.3,30.11,North,349,0.0,0.0,74,0.00,,---,0.00,VWS V13.00,2013-05-09 03:09:00,
2013-05-08 20:14:00,62.3,54.3,30.11,North,349,0.0,0.0,75,0.00,,---,0.00,VWS V13.00,2013-05-09 03:14:00,
2013-05-08 20:19:00,62.0,54.4,30.11,North,349,0.0,0.0,76,0.00,,---,0.00,VWS V13.00,2013-05-09 03:19:00,
2013-05-08 20:24:00,61.5,54.2,30.11,North,349,0.0,0.0,77,0.00,,---,0.00,VWS V13.00,2013-05-09 03:24:00,
2013-05-08 20:29:00,61.0,53.8,30.11,North,349,0.0,0.0,77,0.00,,---,0.00,VWS V13.00,2013-05-09 03:29:00,
2013-05-08 20:34:00,60.5,54.0,30.11,North,349,0.0,0.0,79,0.00,,---,0.00,VWS V13.00,2013-05-09 03:34:00,
2013-05-08 20:39:00,60.1,53.6,30.11,North,349,0.0,0.0,79,0.00,,---,0.00,VWS V13.00,2013-05-09 03:39:00,
2013-05-08 20:44:00,59.8,53.6,30.11,North,349,0.0,0.0,80,0.00,,---,0.00,VWS V13.00,2013-05-09 03:44:00,
2013-05-08 20:49:00,59.5,53.7,30.11,North,349,0.0,0.0,81,0.00,,---,0.00,VWS V13.00,2013-05-09 03:49:00,
2013-05-08 20:54:00,59.2,53.4,30.12,North,349,0.0,0.0,81,0.00,,---,0.00,VWS V13.00,2013-05-09 03:54:00,
2013-05-08 20:59:00,58.7,52.9,30.12,North,349,0.0,0.0,81,0.00,,---,0.00,VWS V13.00,2013-05-09 03:59:00,
2013-05-08 21:01:00,58.6,53.1,30.12,North,349,0.0,0.0,82,0.00,,---,0.00,VWS V13.00,2013-05-09 04:01:00,
2013-05-08 21:06:00,58.1,53.0,30.12,North,349,0.0,0.0,83,0.00,,---,0.00,VWS V13.00,2013-05-09 04:06:00,
2013-05-08 21:11:00,57.8,52.7,30.12,North,349,0.0,0.0,83,0.00,,---,0.00,VWS V13.00,2013-05-09 04:11:00,
2013-05-08 21:16:00,57.3,52.2,30.12,North,349,0.0,0.0,83,0.00,,---,0.00,VWS V13.00,2013-05-09 04:16:00,
2013-05-08 21:21:00,57.0,52.2,30.13,North,349,0.0,0.0,84,0.00,,---,0.00,VWS V13.00,2013-05-09 04:21:00,
2013-05-08 21:26:00,56.7,51.9,30.13,North,349,0.0,0.0,84,0.00,,---,0.00,VWS V13.00,2013-05-09 04:26:00,
2013-05-08 21:31:00,56.6,51.8,30.13,North,349,0.0,0.0,84,0.00,,---,0.00,VWS V13.00,2013-05-09 04:31:00,
2013-05-08 21:36:00,56.3,51.5,30.13,North,349,0.0,0.0,84,0.00,,---,0.00,VWS V13.00,2013-05-09 04:36:00,
2013-05-08 21:41:00,56.0,51.2,30.13,North,349,0.0,0.0,84,0.00,,---,0.00,VWS V13.00,2013-05-09 04:41:00,
2013-05-08 21:46:00,55.7,51.3,30.13,North,349,0.0,0.0,85,0.00,,---,0.00,VWS V13.00,2013-05-09 04:46:00,
2013-05-08 21:51:00,55.4,51.0,30.14,North,349,0.0,0.0,85,0.00,,---,0.00,VWS V13.00,2013-05-09 04:51:00,
2013-05-08 21:56:00,55.1,51.0,30.14,North,349,0.0,0.0,86,0.00,,---,0.00,VWS V13.00,2013-05-09 04:56:00,
2013-05-08 22:01:00,55.0,50.9,30.14,North,349,0.0,0.0,86,0.00,,---,0.00,VWS V13.00,2013-05-09 05:01:00,
2013-05-08 22:06:00,54.7,50.9,30.14,North,349,0.0,0.0,87,0.00,,---,0.00,VWS V13.00,2013-05-09 05:06:00,
2013-05-08 22:11:00,54.5,50.7,30.14,North,349,0.0,0.0,87,0.00,,---,0.00,VWS V13.00,2013-05-09 05:11:00,
2013-05-08 22:16:00,54.4,50.6,30.14,North,349,0.0,0.0,87,0.00,,---,0.00,VWS V13.00,2013-05-09 05:16:00,
2013-05-08 22:21:00,54.2,50.4,30.14,North,349,0.0,0.0,87,0.00,,---,0.00,VWS V13.00,2013-05-09 05:21:00,
2013-05-08 22:26:00,54.1,50.3,30.14,North,349,0.0,0.0,87,0.00,,---,0.00,VWS V13.00,2013-05-09 05:26:00,
2013-05-08 22:31:00,53.8,50.3,30.14,North,349,0.0,0.0,88,0.00,,---,0.00,VWS V13.00,2013-05-09 05:31:00,
2013-05-08 22:36:00,53.6,50.1,30.15,North,349,0.0,0.0,88,0.00,,---,0.00,VWS V13.00,2013-05-09 05:36:00,
2013-05-08 22:41:00,53.5,50.0,30.15,North,349,0.0,0.0,88,0.00,,---,0.00,VWS V13.00,2013-05-09 05:41:00,
2013-05-08 22:46:00,53.5,50.3,30.15,North,349,0.0,0.0,89,0.00,,---,0.00,VWS V13.00,2013-05-09 05:46:00,
2013-05-08 22:51:00,53.3,50.2,30.15,North,349,0.0,0.0,89,0.00,,---,0.00,VWS V13.00,2013-05-09 05:51:00,
2013-05-08 22:56:00,53.2,50.0,30.15,North,349,0.0,0.0,89,0.00,,---,0.00,VWS V13.00,2013-05-09 05:56:00,
2013-05-08 23:01:00,53.1,50.0,30.15,North,349,0.0,0.0,89,0.00,,---,0.00,VWS V13.00,2013-05-09 06:01:00,
2013-05-08 23:06:00,52.9,50.0,30.15,North,349,0.0,0.0,90,0.00,,---,0.00,VWS V13.00,2013-05-09 06:06:00,
2013-05-08 23:11:00,52.8,50.0,30.15,North,349,0.0,0.0,90,0.00,,---,0.00,VWS V13.00,2013-05-09 06:11:00,
2013-05-08 23:16:00,52.6,49.8,30.15,North,349,0.0,0.0,90,0.00,,---,0.00,VWS V13.00,2013-05-09 06:16:00,
2013-05-08 23:21:00,52.6,49.8,30.15,North,349,0.0,0.0,90,0.00,,---,0.00,VWS V13.00,2013-05-09 06:21:00,
2013-05-08 23:26:00,52.5,50.0,30.15,North,349,0.0,0.0,91,0.00,,---,0.00,VWS V13.00,2013-05-09 06:26:00,
2013-05-08 23:31:00,52.3,49.8,30.15,North,349,0.0,0.0,91,0.00,,---,0.00,VWS V13.00,2013-05-09 06:31:00,
2013-05-08 23:36:00,52.2,49.7,30.16,North,349,0.0,0.0,91,0.00,,---,0.00,VWS V13.00,2013-05-09 06:36:00,
2013-05-08 23:41:00,52.0,49.5,30.16,North,349,0.0,0.0,91,0.00,,---,0.00,VWS V13.00,2013-05-09 06:41:00,
2013-05-08 23:46:00,52.0,49.5,30.16,North,349,0.0,0.0,91,0.00,,---,0.00,VWS V13.00,2013-05-09 06:46:00,
2013-05-08 23:51:00,51.9,49.4,30.17,North,349,0.0,0.0,91,0.00,,---,0.00,VWS V13.00,2013-05-09 06:51:00,
2013-05-08 23:56:00,51.7,49.2,30.17,North,349,0.0,0.0,91,0.00,,---,0.00,VWS V13.00,2013-05-09 06:56:00,